Aduana, Mexico

9:02 AM on February 26, 2017 (GMT +0000)
Cancun International

Weather History for MMUN - May, 2013

Change the Weather History Date:

Friday, May 24, 2013

  Actual Average Record
Temperature  
Mean Temperature 84 °F -  
Max Temperature 87 °F 88 °F 96 °F (2005)
Min Temperature 80 °F 74 °F 66 °F (1999)
Cooling Degree Days 18    
Growing Degree Days 34 (Base 50)    
Moisture  
Dew Point 75 °F    
Average Humidity 76    
Maximum Humidity 89    
Minimum Humidity 62    
Precipitation  
Precipitation 0.00 in - - ()
Sea Level Pressure  
Sea Level Pressure 30.00 in    
Wind  
Wind Speed 8 mph ()    
Max Wind Speed 14 mph    
Max Gust Speed -    
Visibility 7.0 miles    
Events      
Averages and records for this station are not official NWS values.
T = Trace of Precipitation, MM = Missing Value Source: Averaged Metar Reports

Daily Weather History Graph

Daily Weather History Graph

Search for Another Location

Airport or City:

Trip Planner

Search our weather history database for the weather conditions in past years. The results will help you decide how hot, cold, wet, or windy it might be!

Date:

Astronomy

May. 24, 2013 Rise Set
Actual Time 6:06 AM CDT 7:22 PM CDT
Civil Twilight 5:42 AM CDT 7:46 PM CDT
Nautical Twilight 5:13 AM CDT 8:15 PM CDT
Astronomical Twilight 4:44 AM CDT 8:44 PM CDT
Moon 7:06 PM CDT (5/24) 5:32 AM CDT (5/24)
Length of Visible Light 14h 03m
Length of Day
13h 15m
Full, 100% of the Moon is Illuminated
May 24
Full
May 24
Full
May 31
Last Quarter
Jun 8
New
Jun 16
First Quarter

Hourly Weather History & Observations

Time (CDT) Temp. Heat Index Dew Point Humidity Pressure Visibility Wind Dir Wind Speed Gust Speed Precip Events Conditions
12:45 AM 80.6 °F 87.1 °F 77.0 °F 89% 29.95 in 7.0 mi East 9.2 mph - N/A   Mostly Cloudy
1:44 AM 80.6 °F 86.2 °F 75.2 °F 84% 29.97 in 7.0 mi ESE 6.9 mph - N/A   Mostly Cloudy
2:43 AM 80.6 °F 86.2 °F 75.2 °F 84% 29.96 in 7.0 mi ESE 5.8 mph - N/A   Scattered Clouds
3:46 AM 80.6 °F 86.2 °F 75.2 °F 84% 29.93 in 7.0 mi East 5.8 mph - N/A   Partly Cloudy
4:45 AM 80.6 °F 86.2 °F 75.2 °F 84% 29.96 in 7.0 mi ESE 5.8 mph - N/A   Partly Cloudy
5:44 AM 80.6 °F 86.2 °F 75.2 °F 84% 29.97 in 7.0 mi ESE 10.4 mph - N/A   Partly Cloudy
6:43 AM 80.6 °F 86.2 °F 75.2 °F 84% 29.96 in 7.0 mi East 5.8 mph - N/A   Scattered Clouds
7:41 AM 84.2 °F 92.3 °F 75.2 °F 74% 30.01 in 7.0 mi ENE 8.1 mph - N/A   Mostly Cloudy
8:41 AM 86.0 °F 95.1 °F 75.2 °F 70% 30.02 in 7.0 mi East 10.4 mph - N/A   Mostly Cloudy
9:40 AM 86.0 °F 95.1 °F 75.2 °F 70% 30.04 in 7.0 mi ENE 8.1 mph - N/A   Mostly Cloudy
10:43 AM 87.8 °F 97.6 °F 75.2 °F 66% 30.05 in 7.0 mi ESE 11.5 mph - N/A   Mostly Cloudy
11:44 AM 87.8 °F 95.6 °F 73.4 °F 62% 30.05 in 7.0 mi ESE 11.5 mph - N/A   Mostly Cloudy
12:41 PM 87.8 °F 95.6 °F 73.4 °F 62% 30.04 in 7.0 mi East 13.8 mph - N/A   Mostly Cloudy
1:40 PM 87.8 °F 95.6 °F 73.4 °F 62% 30.03 in 7.0 mi East 12.7 mph - N/A   Mostly Cloudy
2:48 PM 84.2 °F 92.3 °F 75.2 °F 74% 30.01 in 7.0 mi ESE 11.5 mph - N/A   Mostly Cloudy
3:46 PM 86.0 °F 95.1 °F 75.2 °F 70% 30.01 in 7.0 mi East 12.7 mph - N/A   Mostly Cloudy
4:43 PM 86.0 °F 95.1 °F 75.2 °F 70% 29.99 in 7.0 mi East 10.4 mph - N/A   Mostly Cloudy
5:43 PM 84.2 °F 92.3 °F 75.2 °F 74% 29.99 in 7.0 mi NE 9.2 mph - N/A   Mostly Cloudy
6:41 PM 82.4 °F 88.2 °F 73.4 °F 74% 30.00 in 7.0 mi ENE 6.9 mph - N/A   Mostly Cloudy
7:43 PM 82.4 °F 89.5 °F 75.2 °F 79% 29.99 in 7.0 mi East 8.1 mph - N/A   Scattered Clouds
8:44 PM 82.4 °F 89.5 °F 75.2 °F 79% 30.02 in 7.0 mi NE 6.9 mph - N/A   Scattered Clouds
9:43 PM 80.6 °F 86.2 °F 75.2 °F 84% 30.02 in 7.0 mi East 6.9 mph - N/A   Scattered Clouds
10:45 PM 80.6 °F 86.2 °F 75.2 °F 84% 30.05 in 7.0 mi ENE 6.9 mph - N/A   Scattered Clouds
11:43 PM 80.6 °F 85.4 °F 73.4 °F 79% 30.05 in 7.0 mi ENE 6.9 mph - N/A   Scattered Clouds